www.pogodaiklimat.ru

Погода и климат >> Архив погоды >> Буркина-Фасо >> Fada N`Gourma


ПОГОДА в Fada N`Gourma

  • Прогноз погоды в Fada N`Gourma
  • Монитор погоды в Fada N`Gourma
  • Климат города

АРХИВ ПОГОДЫ в Fada N`Gourma

Время (UTC), дата Ветер
(напр.,м/с)
 
Видим.   Явления Облачность Т
(С)
Тd
(С)
f
(%)
Тe
(С)
Тes
(С)
Комфортность P
(гПа)
Po
(гПа)
Тmin
(С)
Tmax
(С)
R
(мм)
R24
(мм)
S
(см)
00 18.05 штиль 0 10 км 9/0
[Ci sp]
+24.7 +23.0 90 +33 +33 очень
душно
1010.0 975.3
03 18.05 штиль 0 10 км 9/0
[Ci sp]
+23.9 +22.4 91 +31 +31 очень
душно
1008.9 974.3
06 18.05 ЮЗ 2 10 км 9/0
[Ci sp]
+23.4 +22.4 94 +32 +32 очень
душно
1009.8 975.0 +23.4 32
09 18.05 Ю 4 10 км 9/0
[Ci sp]
+26.7 +22.3 77 +35 +41 очень
душно
1010.6 975.9
12 18.05 Ю 3 10 км 9/0
[Ci sp]
+31.1 +21.2 56 +39 +54 опасность
солнечного
удара
1010.8 976.3
15 18.05 Ю 3 10 км 9/0
[Ci sp]
+32.8 +21.0 50 +40 +48 очень
душно
1008.3 974.0
18 18.05 Ю 2 10 км 9/0
[Ci sp]
+30.7 +21.4 58 +39 +39 очень
душно
1008.5 974.1 +33.7
21 18.05 Ю 1 10 км 9/0
[Ci sp]
+28.4 +23.7 76 +39 +39 очень
душно
1009.6 975.2
00 19.05 Ю 2 10 км 9/0
[Ci sp]
+27.4 +23.4 79 +37 +37 очень
душно
1009.6 975.3
03 19.05 В 3 10 км 9/0
[Ci sp]
+26.5 +22.6 79 +35 +35 очень
душно
1008.5 974.3
06 19.05 ЮЗ 3 10 км 9/0
[Ci sp]
+26.0 +22.7 82 +34 +34 очень
душно
1008.9 974.6 +25.8
09 19.05 ЮЗ 4 10 км 9/0
[Ci sp]
+29.9 +23.2 67 +40 +46 очень
душно
1010.3 976.0
12 19.05 ЮЗ 3 10 км 9/0
[Ci sp]
+34.4 +22.1 49 +43 +58 опасность
перегрева
1009.1 975.0
15 19.05 Ю 3 10 км 9/0
[Ci sp]
+37.1 +20.9 39 +44 +51 опасность
перегрева
1006.7 972.8
18 19.05 Ю 2 10 км 9/0
[Ci sp]
+35.5 +20.9 43 +43 +43 опасность
перегрева
1006.7 972.7 +37.7
21 19.05 Ю 1 10 км 9/0
[Ci sp]
+32.2 +23.4 60 +43 +43 опасность
перегрева
1007.6 973.6
00 20.05 Ю 2 10 км 9/0
[Ci sp]
+30.3 +23.0 65 +40 +40 очень
душно
1008.0 974.1
03 20.05 Ю 3 10 км 9/0
[Ci sp]
+29.2 +22.4 67 +38 +38 очень
душно
1007.3 973.6
06 20.05 ЮЗ 4 10 км 9/0
[Ci sp]
+27.9 +23.3 76 +38 +38 очень
душно
1008.0 974.1 +27.9
09 20.05 З 5 10 км 9/0
[Ac trans Ci sp]
+31.3 +22.6 60 +41 +45 опасность
перегрева
1008.7 974.8
12 20.05 З 5 10 км 9/0
[Ci sp]
+35.9 +21.9 44 +44 +53 опасность
перегрева
1007.1 973.4
15 20.05 ЮЗ 3 10 км 9/0
[Ci sp]
+38.4 +20.7 36 +45 +52 опасность
перегрева
1005.1 971.5
18 20.05 ЮЗ 1 10 км 9/0
[Ci sp]
+36.5 +21.2 41 +44 +44 опасность
перегрева
1005.1 971.3 +38.9
21 20.05 Ю 3 10 км 9/0
[Ci sp]
+33.6 +22.6 53 +43 +43 опасность
перегрева
1006.7 972.9
00 21.05 Ю 4 10 км зарница 9/1 1200 м
[Cb cap Ci sp]
+31.5 +23.1 61 +42 +42 опасность
перегрева
1007.6 973.9
03 21.05 Ю 5 10 км зарница 9/1 1200 м
[Cb cap Ci sp]
+30.4 +23.3 66 +41 +41 опасность
перегрева
1007.1 973.5
06 21.05 З 6 10 км 9/0
[Ci sp]
+29.4 +22.6 67 +39 +39 очень
душно
1007.0 973.2 +29.4
09 21.05 ЮЗ 6 10 км 9/0
[Ci sp]
+32.7 +22.1 54 +42 +45 опасность
перегрева
1008.9 975.1
12 21.05 Ю 6 10 км 9/0
[Ci sp]
+35.4 +20.4 42 +42 +49 опасность
перегрева
1007.4 973.7
15 21.05 ЮЗ 4 10 км 9/0
[Ci sp]
+36.5 +20.7 40 +43 +49 опасность
перегрева
1005.1 971.4
18 21.05 Ю 2 10 км 9/1 800 м
[Sc Ac trans Ci sp]
+35.7 +21.1 43 +43 +43 опасность
перегрева
1005.8 972.0 +37.9
21 21.05 Ю 3 10 км 9/0
[Ci sp]
+33.0 +20.9 49 +40 +40 очень
душно
1007.7 973.9
00 22.05 Ю 3 10 км 9/0
[Ci sp]
+30.4 +21.0 57 +38 +38 очень
душно
1008.0 974.2
03 22.05 Ю 3 10 км 9/0
[Ci sp]
+29.2 +21.0 61 +36 +36 очень
душно
1007.0 973.3
06 22.05 Ю 3 10 км 9/0
[Ci sp]
+28.3 +22.2 70 +37 +37 очень
душно
1007.8 973.9 +28.3
09 22.05 Ю 5 10 км 9/0
[Ci sp]
+31.0 +22.7 61 +41 +45 опасность
перегрева
1009.2 975.3
12 22.05 Ю 4 10 км 9/0
[Ac trans Ci sp]
+35.5 +22.4 47 +45 +56 опасность
перегрева
1007.9 974.1
15 22.05 ЮЗ 3 10 км 9/1 600 м
[Cu Sc Ci sp]
+38.1 +21.2 38 +45 +52 опасность
перегрева
1005.5 971.9
18 22.05 З 1 10 км 9/1 600 м
[Cb cap Ci sp]
+36.9 +21.4 41 +44 +45 опасность
перегрева
1005.3 971.6 +38.8
21 22.05 Ю 5 10 км 9/0
[Ci sp]
+33.9 +22.7 52 +44 +44 опасность
перегрева
1008.5 974.6
00 23.05 Ю 4 10 км 9/1 1200 м
[Cb cap Ac trans Ci sp]
+32.3 +22.7 57 +42 +42 опасность
перегрева
1007.7 974.0
03 23.05 Ю 3 10 км 9/4 800 м
[Cb cap Ac trans Ci sp]
+30.1 +23.1 66 +40 +40 очень
душно
1007.8 974.1
06 23.05 Ю 2 10 км 9/0
[Ac trans Ci sp]
+28.3 +22.8 72 +38 +38 очень
душно
1008.8 975.0 +28.3
09 23.05 ЮЗ 4 10 км 9/0
[Ci sp]
+31.0 +21.9 58 +39 +46 очень
душно
1011.0 977.0
12 23.05 ЮЗ 4 10 км 9/1 800 м
[Cu med, cong Ci sp]
+35.4 +23.1 49 +45 +56 опасность
перегрева
1009.7 976.0
15 23.05 ЮЗ 2 10 км 9/3 600 м
[Cu Sc Ci sp]
+37.3 +22.4 42 +46 +52 опасность
перегрева
1007.5 973.8
18 23.05 Ю 3 10 км 9/1 600 м
[Cu Sc Ac trans Ci sp]
+35.5 +22.6 47 +45 +45 опасность
перегрева
1007.7 973.8 +38.1
21 23.05 Ю 2 10 км 9/0
[Ci sp]
+33.3 +23.3 56 +44 +44 опасность
перегрева
1010.2 976.3
00 24.05 Ю 3 10 км зарница 9/1 1200 м
[Cb cap Ci sp]
+31.9 +23.1 60 +42 +42 опасность
перегрева
1009.4 975.7
03 24.05 ЮВ 3 10 км в посл. час гроза 9/1 1200 м
[Cb cap Ac As Ci sp]
+28.4 +20.7 63 +35 +35 очень
душно
1009.7 975.9
06 24.05 СЗ 3 10 км {гроза, дождь} 9/0
[Ac As]
+27.9 +20.3 63 +34 +34 очень
душно
1007.9 974.0 +26.9 0.2
09 24.05 ЮЗ 4 10 км 9/0
[Ac trans Ci sp]
+31.6 +17.5 43 +36 +41 очень
душно
1010.3 976.4
12 24.05 ЮЗ 3 10 км 9/0
[Ac trans Ci sp]
+36.9 +20.0 37 +42 +56 опасность
перегрева
1007.4 973.8
15 24.05 ЮЗ 2 10 км 9/1 800 м
[Sc Ci sp]
+39.5 +19.9 32 +45 +53 опасность
перегрева
1005.6 972.0
18 24.05 Ю 4 10 км 9/1 800 м
[Cb cap Ci sp]
+36.7 +20.1 38 +42 +43 опасность
перегрева
1004.9 971.1 +40.4
21 24.05 ЮЗ 4 10 км 9/0
[Cs]
+33.4 +18.7 42 +38 +38 очень
душно
1007.2 973.4

 

Местоположение метеостанции Fada N`Gourma (Буркина-Фасо): широта 12.03 долгота 0.37 высота над уровнем моря 309 м.

В архиве по умолчанию представлена погода в Fada N`Gourma за последнюю неделю. Архивные данные за месяц целиком и за предыдущие месяцы, начиная с января 2011 года, Вы можете получить, выбрав интересующий диапазон дат из раскрывающегося списка и нажав кнопку "Ввод!".


*Определитесь, кто Вы:
робот инопланетянин человек

Внимание! Время в таблицах - всемирное. Для получения местного времени необходимо прибавить поправку, которая в Fada N`Gourma равна 0 ч.

Смотрите также архив погоды в соседних городах и на ближайших метеорологических станциях:

Погода в Dapaon (Того) (129 км)
Погода в Mango (Того) (185 км)
Погода в Po (Буркина-Фасо) (192 км)
Погода в Navrongo (Гана) (204 км)
Погода в Ouagadougou (Буркина-Фасо) (209 км)
Погода в Natitingou (Бенин) (220 км)
Погода в Dori (Буркина-Фасо) (227 км)
Погода в Niamey (Нигер) (253 км)
Погода в Niamtougou (Того) (264 км)
Погода в Tillabery (Нигер) (268 км)

Пояснения к столбцам:

Ветер - указаны скорость ветра в м/с - средняя за 10 мин, порывы в срок и между сроками (в фигурных скобках) и направление, откуда дует ветер: С - северный, СВ - северо-восточный, В - восточный, ЮВ - юго-восточный, Ю - южный, ЮЗ - юго-западный, З - западный, СЗ - северо-западный.
Видимость - горизонтальная дальность видимости в метрах или километрах. При видимости от 1 до 10 км при отсутствии осадков обычно наблюдается дымка, при ухудшении видимости до 1 км и менее - туман. В сухую погоду видимость может ухудшаться дымом, пылью или мглою.
Явления - указаны атмосферные явления, наблюдавшиеся в срок или в последний час перед сроком; фигурными скобками обозначены явления, наблюдавшиеся между сроками (за 1-3 часа до срока); квадратными скобками обозначены град или гололедные отложения с указанием их диаметра в мм.
Облачность - указаны через наклонную черту общая и нижняя облачность в баллах и высота нижней границы облаков в метрах; квадратными скобками обозначены формы облаков: Ci - перистые, Cs - перисто-слоистые, Cc - перисто-кучевые, Ac - высококучевые, As - высокослоистые, Sc - слоисто-кучевые, Ns - слоисто-дождевые, Cu - кучевые, Cb - кучево-дождевые. Подробнее классификацию облаков см. в Атласе облаков (PDF).
T - Температура воздуха - температура, измеренная на высоте 2 м над землей.
Td - Температура точки росы - температура, при понижении до которой содержащийся в воздухе водяной пар достигнет насыщения.
f - Относительная влажность воздуха - влажноcть воздуха, измеренная на высоте 2 м над землей.
Te - Эффективная температура - температура, которую ощущает одетый по сезону человек в тени. Характеристика душности погоды. При расчете учитывается влияние влажности воздуха и скорости ветра на теплоощущения человека.
Tes - Эффективная температура на солнце - температура, которую ощущает человек, с поправкой на солнечный нагрев. Характеристика знойности погоды. Зависит от высоты солнца над горизонтом, облачности и скорости ветра. Ночью, в пасмурную погоду, а также при ветре 12 м/с и более поправка равна нулю.
P - Атмосферное давление - приведенное к уровню моря атмосферное давление.
Po - Атмосферное давление - измеренное на уровне метеостанции атмосферное давление.
Tmin - Минимальная температура - минимум температуры воздуха на высоте 2 м над землей.
Tmax - Максимальная температура - максимум температуры воздуха на высоте 2 м над землей.
R - Количество осадков - Количество выпавших осадков за период времени, мм. При наведении курсора мыши на число - период времени, за который выпало указанное количество осадков.
R24 - Количество осадков - Количество выпавших осадков за 24 часа, мм.
S - Снежный покров - Высота снежного покрова, см. При наведении курсора мыши на число - состояние снежного покрова и степень покрытия местности в баллах.